Location: Waco, TX
(31.5480°N, 97.1670°W)
Time: 18:55:08
(UTC-06:00)

ISS - Pass Details

Date: 13 January 2019
Orbit: 404 x 410 km, 51.6° (Epoch: 24 January)

Event Time Altitude Azimuth Distance (km) Brightness Sun altitude
Rises 04:48:15 0° 335° (NNW) 2,341 - -33.7°
Reaches altitude 10° 04:51:45 10° 14° (NNE) 1,475 - -33.0°
Maximum altitude 04:52:41 11° 31° (NNE) 1,421 - -32.8°
Drops below altitude 10° 04:53:37 10° 47° (NE) 1,473 - -32.6°
Exits shadow 04:54:50 - 65° (ENE) 1,681 0.0 -32.3°
Sets 04:57:06 0° 87° (E) 2,329 1.1 -31.8°
